Atqasuk Edward Burnell Sr Mem, AK

3:41 AM AKDT on April 29, 2017 (GMT -0800)
Atqasuk Edward Burnell Sr Mem

Weather History for PATQ - May, 2014

Change the Weather History Date:

Monday, May 5, 2014

  Actual Average (PABR) Record (PABR)
Temperature  
Mean Temperature 22 °F -  
Max Temperature 28 °F 19 °F 38 °F (1923)
Min Temperature 15 °F 5 °F -14 °F (1964)
Degree Days  
Heating Degree Days 44    
Moisture  
Dew Point 18 °F    
Average Humidity 85    
Maximum Humidity 93    
Minimum Humidity 69    
Precipitation  
Precipitation 0.00 in - - ()
Sea Level Pressure  
Sea Level Pressure 29.82 in    
Wind  
Wind Speed 27 mph (SW)    
Max Wind Speed 34 mph    
Max Gust Speed 44 mph    
Visibility 4 miles    
Events Fog , Snow    
Averages and records for this station are not official NWS values.
T = Trace of Precipitation, MM = Missing Value Source: NWS Daily Summary

Daily Weather History Graph

Daily Weather History Graph

Search for Another Location

Airport or City:

Trip Planner

Search our weather history database for the weather conditions in past years. The results will help you decide how hot, cold, wet, or windy it might be!

Date:

Astronomy

May. 05, 2014 Rise Set
Actual Time 4:24 AM AKDT 12:34 AM AKDT
Civil Twilight Sun does not set Sun does not set
Nautical Twilight Sun does not set Sun does not set
Astronomical Twilight Sun does not set Sun does not set
Moon 10:27 AM AKDT (5/5) 4:53 AM AKDT (5/5)
Length of Visible Light 24h 00m
Length of Day
20h 10m
Waxing Crescent, 38% of the Moon is Illuminated
May 5
Waxing Crescent
May 6
First Quarter
May 14
Full
May 21
Last Quarter
May 28
New

Hourly Weather History & Observations

Time (AKDT) Temp. Windchill Dew Point Humidity Pressure Visibility Wind Dir Wind Speed Gust Speed Precip Events Conditions
12:33 AM 17.6 °F -1.6 °F 12.2 °F 79% 29.79 in 10.0 mi WSW 28.8 mph 34.5 mph 0.00 in Snow Light Snow
12:49 AM 17.6 °F -2.5 °F 14.0 °F 86% 29.79 in 1.8 mi SW 32.2 mph - 0.00 in Snow Light Snow
12:56 AM 17.6 °F -2.2 °F 12.2 °F 79% 29.79 in 2.5 mi WSW 31.1 mph - N/A Snow Light Snow
1:02 AM 17.6 °F -1.9 °F 10.4 °F 73% 29.80 in 10.0 mi WSW 29.9 mph 43.7 mph 0.00 in Snow Light Snow
1:47 AM 15.8 °F -3.7 °F 12.2 °F 86% 29.81 in 10.0 mi SW 27.6 mph - 0.00 in Snow Light Snow
1:56 AM 16.2 °F -3.2 °F 13.1 °F 88% 29.83 in 8.0 mi SW 27.6 mph - 0.00 in Snow Light Snow
2:20 AM 17.6 °F -1.3 °F 12.2 °F 79% 29.80 in 8.0 mi SW 27.6 mph 33.4 mph 0.00 in Snow Light Snow
2:56 AM 18.1 °F -0.6 °F 13.1 °F 81% 29.82 in 10.0 mi WSW 27.6 mph 33.4 mph 0.00 in Snow Light Snow
3:49 AM 17.6 °F 0.5 °F 14.0 °F 86% 29.81 in 2.0 mi WSW 21.9 mph 31.1 mph 0.00 in Snow Light Snow
3:56 AM 17.6 °F 2.7 °F 14.0 °F 86% 29.81 in 2.0 mi WSW 16.1 mph - N/A Snow Light Snow
4:05 AM 17.6 °F 2.2 °F 15.8 °F 93% 29.81 in 9.0 mi SW 17.3 mph - 0.00 in Snow Light Snow
4:56 AM 18.1 °F 0.8 °F 15.1 °F 88% 29.83 in 6.0 mi WSW 23.0 mph - 0.00 in Snow Light Snow
5:12 AM 17.6 °F -1.0 °F 15.8 °F 93% 29.81 in 1.5 mi WSW 26.5 mph 31.1 mph 0.00 in Snow Light Snow
5:16 AM 17.6 °F 0.5 °F 15.8 °F 93% 29.81 in 1.0 mi WSW 21.9 mph 31.1 mph 0.00 in Snow Light Snow
5:36 AM 19.4 °F - 15.8 °F 86% 29.81 in 0.5 mi North - - 0.00 in Fog , Snow Snow
5:56 AM 19.0 °F 2.0 °F 16.2 °F 89% 29.83 in 1.2 mi WSW 23.0 mph - 0.00 in Snow Light Snow
6:04 AM 19.4 °F 1.8 °F 15.8 °F 86% 29.81 in 1.8 mi WSW 25.3 mph 34.5 mph 0.00 in Snow Light Snow
6:12 AM 19.4 °F 2.1 °F 15.8 °F 86% 29.81 in 2.0 mi SW 24.2 mph 31.1 mph 0.00 in Snow Light Snow
6:20 AM 19.4 °F 2.1 °F 15.8 °F 86% 29.81 in 1.5 mi SW 24.2 mph - 0.00 in Snow Light Snow
6:32 AM 19.4 °F 1.8 °F 17.6 °F 93% 29.81 in 1.0 mi SW 25.3 mph 33.4 mph 0.00 in Snow Light Snow
6:37 AM 19.4 °F 1.4 °F 17.6 °F 93% 29.81 in 0.8 mi WSW 26.5 mph 33.4 mph 0.00 in Snow Light Snow
6:41 AM 19.4 °F 1.4 °F 17.6 °F 93% 29.81 in 1.0 mi WSW 26.5 mph 32.2 mph 0.00 in Snow Light Snow
6:56 AM 19.4 °F 2.1 °F 17.6 °F 93% 29.81 in 0.8 mi WSW 24.2 mph 32.2 mph N/A Snow Light Snow
7:02 AM 19.4 °F 2.8 °F 17.6 °F 93% 29.81 in 1.2 mi SW 21.9 mph - 0.00 in Snow Light Snow
7:07 AM 19.4 °F 3.2 °F 17.6 °F 93% 29.82 in 2.0 mi SW 20.7 mph - 0.00 in Snow Light Snow
7:12 AM 19.4 °F 1.8 °F 17.6 °F 93% 29.81 in 1.2 mi SW 25.3 mph 28.8 mph 0.00 in Snow Light Snow
7:16 AM 19.4 °F 1.8 °F 17.6 °F 93% 29.81 in 0.8 mi SW 25.3 mph 28.8 mph 0.00 in Snow Light Snow
7:45 AM 21.2 °F 3.0 °F 19.4 °F 93% 29.80 in 0.5 mi SW 29.9 mph 36.8 mph 0.00 in Fog , Snow Light Snow
7:56 AM 21.0 °F 2.7 °F 19.0 °F 92% 29.82 in 0.5 mi WSW 29.9 mph 35.7 mph 0.00 in Fog , Snow Light Snow
8:06 AM 21.2 °F 2.4 °F 19.4 °F 93% 29.80 in 0.2 mi WSW 32.2 mph 39.1 mph 0.00 in Fog , Snow Light Snow
8:22 AM 21.2 °F 1.9 °F 19.4 °F 93% 29.80 in 0.5 mi SW 34.5 mph 39.1 mph 0.00 in Fog , Snow Light Snow
8:26 AM 21.2 °F 2.2 °F 19.4 °F 93% 29.80 in 1.0 mi SW 33.4 mph 39.1 mph 0.00 in Snow Light Snow
8:30 AM 21.2 °F 3.0 °F 19.4 °F 93% 29.80 in 1.8 mi SW 29.9 mph 39.1 mph 0.00 in Snow Light Snow
8:38 AM 21.2 °F 2.2 °F 19.4 °F 93% 29.80 in 1.0 mi SW 33.4 mph 39.1 mph 0.00 in Snow Light Snow
8:56 AM 22.1 °F 3.9 °F 20.1 °F 92% 29.83 in 0.8 mi SW 31.1 mph 35.7 mph 0.00 in Snow Light Snow
9:03 AM 21.2 °F 3.9 °F 19.4 °F 93% 29.81 in 0.5 mi SW 26.5 mph 35.7 mph 0.00 in Fog , Snow Light Snow
9:19 AM 21.2 °F 2.7 °F 19.4 °F 93% 29.81 in 0.8 mi SW 31.1 mph 35.7 mph 0.00 in Snow Light Snow
9:30 AM 21.2 °F 2.7 °F 19.4 °F 93% 29.80 in 0.5 mi WSW 31.1 mph 36.8 mph 0.00 in Fog , Snow Light Snow
9:43 AM 21.2 °F 2.7 °F 19.4 °F 93% 29.80 in 0.2 mi SW 31.1 mph 40.3 mph 0.00 in Fog , Snow Snow
9:56 AM 23.0 °F 5.1 °F 19.4 °F 86% 29.81 in 0.8 mi SW 31.1 mph 36.8 mph N/A Snow Light Snow
10:16 AM 23.0 °F 4.6 °F 19.4 °F 86% 29.81 in 0.5 mi SW 33.4 mph 38.0 mph 0.00 in Fog , Snow Light Snow
10:46 AM 24.8 °F 7.6 °F 19.4 °F 80% 29.82 in 1.0 mi SW 31.1 mph 39.1 mph 0.00 in Snow Light Snow
10:56 AM 24.1 °F 6.1 °F 20.1 °F 85% 29.84 in 2.5 mi SW 33.4 mph 40.3 mph 0.00 in Snow Light Snow
11:03 AM 24.8 °F 7.3 °F 19.4 °F 80% 29.82 in 6.0 mi SW 32.2 mph 39.1 mph 0.00 in Snow Light Snow
11:56 AM 25.2 °F 8.6 °F 20.1 °F 81% 29.84 in 10.0 mi SW 28.8 mph 38.0 mph 0.00 in Snow Light Snow
12:19 PM 26.6 °F 10.0 °F 19.4 °F 74% 29.82 in 10.0 mi SW 31.1 mph 36.8 mph 0.00 in Snow Light Snow
12:45 PM 26.6 °F 10.6 °F 19.4 °F 74% 29.83 in 1.8 mi SW 28.8 mph 39.1 mph 0.00 in Snow Light Snow
12:56 PM 26.6 °F 11.4 °F 21.2 °F 80% 29.83 in 3.0 mi WSW 25.3 mph 33.4 mph N/A Snow Light Snow
1:13 PM 24.8 °F 8.7 °F 21.2 °F 86% 29.83 in 1.8 mi WSW 26.5 mph 35.7 mph 0.00 in Snow Light Snow
1:24 PM 26.6 °F 10.8 °F 21.2 °F 80% 29.83 in 2.5 mi WSW 27.6 mph 32.2 mph 0.00 in Snow Light Snow
1:31 PM 26.6 °F 11.1 °F 21.2 °F 80% 29.83 in 3.0 mi WSW 26.5 mph 31.1 mph 0.00 in Snow Light Snow
1:56 PM 26.1 °F 9.6 °F 21.0 °F 81% 29.86 in 10.0 mi WSW 29.9 mph 39.1 mph 0.00 in Snow Light Snow
2:22 PM 26.6 °F 10.6 °F 19.4 °F 74% 29.83 in 10.0 mi WSW 28.8 mph 34.5 mph 0.00 in Snow Light Snow
2:56 PM 27.1 °F 10.5 °F 20.1 °F 75% 29.85 in 10.0 mi SW 32.2 mph 35.7 mph 0.00 in Snow Light Snow
3:04 PM 26.6 °F 10.0 °F 19.4 °F 74% 29.83 in 10.0 mi WSW 31.1 mph 36.8 mph 0.00 in Snow Light Snow
3:13 PM 26.6 °F 10.6 °F 19.4 °F 74% 29.83 in 10.0 mi WSW 28.8 mph 34.5 mph 0.00 in Snow Light Snow
3:56 PM 28.4 °F 13.3 °F 19.4 °F 69% 29.83 in 10.0 mi WSW 27.6 mph 34.5 mph N/A   Overcast
4:56 PM 28.0 °F 13.6 °F 20.1 °F 72% 29.86 in 10.0 mi WSW 24.2 mph 33.4 mph N/A   Clear
5:56 PM 28.0 °F 13.9 °F 21.0 °F 75% 29.86 in 10.0 mi WSW 23.0 mph - N/A   Overcast
6:56 PM 28.4 °F 14.7 °F 19.4 °F 69% 29.84 in 10.0 mi SW 21.9 mph - N/A   Overcast
7:56 PM 28.0 °F 15.7 °F 20.1 °F 72% 29.86 in 10.0 mi SW 17.3 mph - N/A   Overcast
8:56 PM 27.1 °F 15.4 °F 21.0 °F 78% 29.86 in 10.0 mi SSW 15.0 mph - N/A   Overcast
9:56 PM 26.1 °F 14.5 °F 21.0 °F 81% 29.86 in 10.0 mi South 13.8 mph - N/A   Overcast
10:56 PM 25.2 °F 12.9 °F 20.1 °F 81% 29.85 in 10.0 mi South 15.0 mph - N/A   Overcast
11:56 PM 25.2 °F 14.4 °F 20.1 °F 81% 29.85 in 10.0 mi South 11.5 mph - N/A   Overcast